Regional Weather Roundup
Issued by NWS

Home | Current Version | Previous Version | Text Only | Print | Product List | Glossary On
Versions: 1 2 3 4 5 6 7 8 9 10 11 12 13 14 15 16 17 18 19 20 21 22 23 24 25 26 27 28 29 30 31 32 33 34 35 36 37 38 39 40 41 42 43 44 45 46 47 48 49 50
000
ASUS44 KBMX 221610
RWRAL

ALABAMA REGIONAL WEATHER ROUNDUP
NATIONAL WEATHER SERVICE BIRMINGHAM AL
1100 AM CDT MON SEP 22 2014

NOTE: "FAIR" INDICATES FEW OR NO CLOUDS BELOW 12,000 FEET
WITH NO SIGNIFICANT WEATHER AND/OR OBSTRUCTIONS TO VISIBILITY.

THE REMARK "TC" DENOTES TEMPERATURE IN DEGREES CELSIUS.

ALZ001>011-014-016>018-020-221700-
NORTH ALABAMA

CITY           SKY/WX    TMP DP  RH WIND       PRES   REMARKS
MUSCLE SHOALS  SUNNY     72  51  47 N9        30.19R
HUNTSVILLE     SUNNY     74  51  44 NE12G21   30.16R
DECATUR        SUNNY     73  51  46 N13       30.17R
HALEYVILLE     FAIR      69  55  60 N9        30.19S
GADSDEN        SUNNY     75  50  41 NE10      30.12S
$$

ALZ012-013-022-023-030>036-040>044-221700-
WEST CENTRAL ALABAMA

CITY           SKY/WX    TMP DP  RH WIND       PRES   REMARKS
TUSCALOOSA     SUNNY     78  52  40 N9G17     30.11S
$$

ALZ015-024>027-033>036-040>044-221700-
CENTRAL ALABAMA

CITY           SKY/WX    TMP DP  RH WIND       PRES   REMARKS
BIRMINGHAM     MOSUNNY   76  50  40 NE16      30.14R
MONTGOMERY     LGT RAIN  68  64  87 N3        30.09R
SHELBY CO ARPT SUNNY     77  51  40 VRB5      30.11S
MAXWELL AFB    CLOUDY    67  66  94 NE5       30.08S
GREENVILLE     CLOUDY    77  66  68 N9        30.06F
$$

ALZ019-021-028-029-037-038-045>048-221700-
EAST CENTRAL ALABAMA

CITY           SKY/WX    TMP DP  RH WIND       PRES   REMARKS
ANNISTON       SUNNY     76  52  43 NE10      30.10S
ALEXANDER CITY PTSUNNY   74  63  69 CALM      30.10R
AUBURN         CLOUDY    63  59  88 N6        30.11
$$

ALZ051>064-221700-
SOUTHWEST ALABAMA

CITY           SKY/WX    TMP DP  RH WIND       PRES   REMARKS
MOBILE         MOSUNNY   85  69  58 N5        30.04F
BROOKLEY FIELD SUNNY     82  72  71 E5        30.04F
EVERGREEN      PTSUNNY   81  69  67 NE9       30.05F
$$

ALZ049-050-065>069-221700-
SOUTHEAST ALABAMA

CITY           SKY/WX    TMP DP  RH WIND       PRES   REMARKS
DOTHAN         MOSUNNY   86  66  51 W7        30.05F
OZARK          SUNNY     87  66  50 VRB5      30.02F
TROY           PTSUNNY   77  63  61 N10       30.07S
EUFAULA        PTSUNNY   78  65  63 VRB5      30.05S
$$


USA.gov is the U.S. government's official web portal to all federal, state and local government web resources and services.